Weather History for KCUT - February, 2013

Change the Weather History Date:

Monday, February 11, 2013

  Actual Average Record
Temperature  
Mean Temperature 15 °F 25 °F  
Max Temperature 24 °F 36 °F 59 °F (1962)
Min Temperature 6 °F 14 °F -27 °F (1944)
Degree Days  
Heating Degree Days 50 40  
Month to date heating degree days 403 445  
Since 1 July heating degree days 4812 5180  
Cooling Degree Days 0 0  
Month to date cooling degree days 0 0  
Year to date cooling degree days 0 0  
Moisture  
Dew Point 3 °F    
Average Humidity 61    
Maximum Humidity 76    
Minimum Humidity 45    
Precipitation  
Precipitation 0.00 in 0.02 in 0.21 in (1954)
Month to date precipitation 0.02 0.22  
Year to date precipitation 0.82 0.55  
Sea Level Pressure  
Sea Level Pressure 30.08 in    
Wind  
Wind Speed 8 mph (West)    
Max Wind Speed 20 mph    
Max Gust Speed 30 mph    
Visibility 10 miles    
Events      
T = Trace of Precipitation, MM = Missing Value Source: NWS Daily Summary

Daily Weather History Graph

Daily Weather History Graph

Search for Another Location

Airport or City:

Trip Planner

Search our weather history database for the weather conditions in past years. The results will help you decide how hot, cold, wet, or windy it might be!

Date:

Astronomy

Feb. 11, 2013 Rise Set
Actual Time 6:58 AM MST 5:19 PM MST
Civil Twilight 6:28 AM MST 5:49 PM MST
Nautical Twilight 5:54 AM MST 6:23 PM MST
Astronomical Twilight 5:21 AM MST 6:56 PM MST
Moon 7:19 AM MST (2/11) 7:24 PM MST (2/11)
Length of Visible Light 11h 20m
Length of Day
10h 21m
Waxing Crescent, 3% of the Moon is Illuminated
Feb 11
Waxing Crescent
Feb 17
First Quarter
Feb 25
Full
Mar 4
Last Quarter
Mar 11
New

Hourly Weather History & Observations

Time (MST) Temp. Windchill Dew Point Humidity Pressure Visibility Wind Dir Wind Speed Gust Speed Precip Events Conditions
12:53 AM 10.0 °F 3.6 °F 1.0 °F 67% 30.07 in 10.0 mi Variable 3.5 mph - N/A   Clear
1:53 AM 9.0 °F 0.6 °F 1.0 °F 70% 30.08 in 10.0 mi Variable 4.6 mph - N/A   Clear
2:53 AM 8.1 °F 1.4 °F 1.0 °F 73% 30.06 in 10.0 mi WNW 3.5 mph - N/A   Clear
3:53 AM 7.0 °F -6.6 °F -0.0 °F 73% 30.08 in 10.0 mi West 9.2 mph - N/A   Clear
4:53 AM 7.0 °F 0.1 °F -0.0 °F 73% 30.09 in 10.0 mi West 3.5 mph - N/A   Clear
5:53 AM 6.1 °F -2.8 °F -0.0 °F 76% 30.11 in 10.0 mi West 4.6 mph - N/A   Clear
6:53 AM 6.1 °F -2.8 °F -0.0 °F 76% 30.12 in 10.0 mi West 4.6 mph - N/A   Clear
7:53 AM 12.0 °F -0.4 °F 3.0 °F 67% 30.12 in 10.0 mi West 9.2 mph - N/A   Clear
8:53 AM 17.1 °F 3.0 °F 5.0 °F 59% 30.11 in 10.0 mi West 13.8 mph 27.6 mph N/A   Clear
9:53 AM 19.0 °F 8.2 °F 5.0 °F 54% 30.10 in 10.0 mi NW 9.2 mph 26.5 mph N/A   Clear
10:53 AM 21.0 °F 9.9 °F 5.0 °F 50% 30.10 in 10.0 mi West 10.4 mph 23.0 mph N/A   Clear
11:53 AM 23.0 °F 10.6 °F 7.0 °F 50% 30.07 in 10.0 mi West 13.8 mph 23.0 mph N/A   Clear
12:53 PM 23.0 °F 10.1 °F 9.0 °F 55% 30.05 in 10.0 mi West 15.0 mph 23.0 mph N/A   Clear
1:53 PM 23.0 °F 11.1 °F 8.1 °F 53% 30.06 in 10.0 mi WNW 12.7 mph 25.3 mph N/A   Clear
2:53 PM 24.1 °F 11.0 °F 8.1 °F 51% 30.04 in 10.0 mi West 16.1 mph 20.7 mph N/A   Clear
3:53 PM 23.0 °F 10.6 °F 5.0 °F 46% 30.06 in 10.0 mi WNW 13.8 mph 25.3 mph N/A   Clear
4:53 PM 21.0 °F 12.4 °F 3.9 °F 48% 30.06 in 10.0 mi West 6.9 mph 19.6 mph N/A   Clear
5:53 PM 17.1 °F 8.7 °F 1.0 °F 50% 30.09 in 10.0 mi WSW 5.8 mph - N/A   Clear
6:53 PM 15.1 °F 5.2 °F 3.0 °F 59% 30.09 in 10.0 mi West 6.9 mph - N/A   Clear
7:53 PM 16.0 °F 4.4 °F 3.9 °F 59% 30.07 in 10.0 mi West 9.2 mph - N/A   Clear
8:53 PM 14.0 °F 3.9 °F 3.0 °F 62% 30.06 in 10.0 mi West 6.9 mph - N/A   Clear
9:53 PM 14.0 °F 3.9 °F 3.0 °F 62% 30.05 in 10.0 mi WSW 6.9 mph - N/A   Clear
10:53 PM 14.0 °F 5.1 °F 3.9 °F 64% 30.03 in 10.0 mi West 5.8 mph - N/A   Clear
11:53 PM 15.1 °F 6.4 °F 3.0 °F 59% 30.03 in 10.0 mi WSW 5.8 mph - N/A   Clear